Zurück zum Katalog

USA 576

AktivMilitärVLEO
NORAD 67488·PAYLOAD·🇺🇸 United States

Gestartet Jan 17, 2026 von Vandenberg Space Force Base

Loading…

Nächste Überflüge (nächste 24 Stunden)

TLE

VeraltetSource: Mike McCants

Epoche: Jul 15, 2026, 01:05 UTC

1 67488U 26011E   26196.04533004 0.00000000  00000-0  00000-0 0    09
2 67488  70.0260 167.0838 0002000 195.2748 164.7251 14.96713600    04

Verfolge USA 576 in Echtzeit mit AllMySat

Download on the App Store